datetime,ave air temp
1990-10-01,32.0
1990-10-02,32.0
1990-10-03,32.0
1990-10-04,32.0
1990-10-05,32.0
1990-10-06,32.0
1990-10-07,32.0
1990-10-08,32.0
1990-10-09,32.0
1990-10-10,32.0
1990-10-11,32.0
1990-10-12,32.0
1990-10-13,32.0
1990-10-14,32.0
1990-10-15,32.0
1990-10-16,
1990-10-17,
1990-10-18,32.0
1990-10-19,24.62
1990-10-20,31.28
1990-10-21,38.3
1990-10-22,36.14
1990-10-23,40.28
1990-10-24,49.28
1990-10-25,47.48
1990-10-26,42.26
1990-10-27,46.22
1990-10-28,36.32
1990-10-29,36.68
1990-10-30,35.6
1990-10-31,27.68
1990-11-01,19.94
1990-11-02,21.02
1990-11-03,32.54
1990-11-04,34.34
1990-11-05,23.9
1990-11-06,18.86
1990-11-07,30.92
1990-11-08,35.6
1990-11-09,37.04
1990-11-10,42.62
1990-11-11,44.78
1990-11-12,43.88
1990-11-13,37.22
1990-11-14,23.18
1990-11-15,24.44
1990-11-16,32.0
1990-11-17,31.1
1990-11-18,28.76
1990-11-19,23.72
1990-11-20,19.76
1990-11-21,25.52
1990-11-22,27.32
1990-11-23,35.78
1990-11-24,38.66
1990-11-25,25.16
1990-11-26,15.44
1990-11-27,19.4
1990-11-28,23.36
1990-11-29,28.76
1990-11-30,19.94
1990-12-01,17.42
1990-12-02,19.58
1990-12-03,30.74
1990-12-04,28.4
1990-12-05,28.4
1990-12-06,30.2
1990-12-07,32.54
1990-12-08,38.3
1990-12-09,36.14
1990-12-10,28.94
1990-12-11,15.98
1990-12-12,18.32
1990-12-13,13.28
1990-12-14,14.9
1990-12-15,19.58
1990-12-16,19.58
1990-12-17,25.52
1990-12-18,19.94
1990-12-19,-1.12
1990-12-20,-17.14
1990-12-21,-17.68
1990-12-22,-0.76
1990-12-23,8.24
1990-12-24,17.6
1990-12-25,19.76
1990-12-26,20.66
1990-12-27,19.4
1990-12-28,11.12
1990-12-29,0.68
1990-12-30,18.32
1990-12-31,25.34
1991-01-01,29.48
1991-01-02,30.38
1991-01-03,30.2
1991-01-04,29.48
1991-01-05,27.68
1991-01-06,26.42
1991-01-07,23.36
1991-01-08,21.56
1991-01-09,23.36
1991-01-10,28.22
1991-01-11,29.84
1991-01-12,31.1
1991-01-13,31.1
1991-01-14,31.28
1991-01-15,25.52
1991-01-16,27.32
1991-01-17,33.8
1991-01-18,33.08
1991-01-19,21.74
1991-01-20,15.08
1991-01-21,20.12
1991-01-22,31.64
1991-01-23,28.76
1991-01-24,26.6
1991-01-25,25.7
1991-01-26,28.04
1991-01-27,24.26
1991-01-28,19.4
1991-01-29,24.08
1991-01-30,29.48
1991-01-31,32.0
1991-02-01,34.88
1991-02-02,30.74
1991-02-03,29.66
1991-02-04,29.84
1991-02-05,28.58
1991-02-06,29.3
1991-02-07,34.88
1991-02-08,34.88
1991-02-09,31.28
1991-02-10,34.7
1991-02-11,33.98
1991-02-12,28.94
1991-02-13,33.98
1991-02-14,38.3
1991-02-15,37.22
1991-02-16,28.22
1991-02-17,23.18
1991-02-18,27.32
1991-02-19,33.26
1991-02-20,32.9
1991-02-21,39.38
1991-02-22,34.34
1991-02-23,28.22
1991-02-24,29.3
1991-02-25,33.8
1991-02-26,34.16
1991-02-27,35.78
1991-02-28,30.38
1991-03-01,28.4
1991-03-02,26.24
1991-03-03,29.84
1991-03-04,28.22
1991-03-05,15.44
1991-03-06,16.52
1991-03-07,19.4
1991-03-08,25.52
1991-03-09,27.5
1991-03-10,19.22
1991-03-11,16.16
1991-03-12,21.56
1991-03-13,20.66
1991-03-14,19.58
1991-03-15,18.86
1991-03-16,21.92
1991-03-17,29.3
1991-03-18,24.8
1991-03-19,23.36
1991-03-20,22.82
1991-03-21,23.54
1991-03-22,23.18
1991-03-23,24.08
1991-03-24,21.74
1991-03-25,21.92
1991-03-26,21.2
1991-03-27,25.88
1991-03-28,27.86
1991-03-29,30.56
1991-03-30,36.68
1991-03-31,35.24
1991-04-01,34.34
1991-04-02,30.92
1991-04-03,31.46
1991-04-04,37.94
1991-04-05,31.46
1991-04-06,31.46
1991-04-07,20.48
1991-04-08,25.7
1991-04-09,26.78
1991-04-10,15.08
1991-04-11,22.1
1991-04-12,32.36
1991-04-13,35.42
1991-04-14,30.74
1991-04-15,26.96
1991-04-16,26.06
1991-04-17,28.94
1991-04-18,30.38
1991-04-19,35.06
1991-04-20,33.26
1991-04-21,34.52
1991-04-22,37.04
1991-04-23,33.8
1991-04-24,27.14
1991-04-25,21.92
1991-04-26,24.62
1991-04-27,27.32
1991-04-28,31.64
1991-04-29,32.18
1991-04-30,38.48
1991-05-01,36.86
1991-05-02,33.08
1991-05-03,35.6
1991-05-04,39.74
1991-05-05,41.0
1991-05-06,36.32
1991-05-07,36.86
1991-05-08,27.86
1991-05-09,23.36
1991-05-10,26.78
1991-05-11,32.72
1991-05-12,35.78
1991-05-13,32.54
1991-05-14,36.14
1991-05-15,41.18
1991-05-16,37.04
1991-05-17,26.42
1991-05-18,28.76
1991-05-19,35.42
1991-05-20,35.78
1991-05-21,44.78
1991-05-22,47.12
1991-05-23,46.4
1991-05-24,43.16
1991-05-25,33.98
1991-05-26,33.98
1991-05-27,38.12
1991-05-28,37.04
1991-05-29,31.64
1991-05-30,29.66
1991-05-31,40.46
1991-06-01,48.92
1991-06-02,52.52
1991-06-03,44.78
1991-06-04,33.08
1991-06-05,31.82
1991-06-06,34.7
1991-06-07,45.14
1991-06-08,47.84
1991-06-09,54.14
1991-06-10,62.24
1991-06-11,52.16
1991-06-12,44.6
1991-06-13,34.88
1991-06-14,40.28
1991-06-15,47.84
1991-06-16,41.9
1991-06-17,43.52
1991-06-18,48.02
1991-06-19,37.58
1991-06-20,39.92
1991-06-21,44.6
1991-06-22,45.86
1991-06-23,42.98
1991-06-24,40.28
1991-06-25,40.82
1991-06-26,43.7
1991-06-27,42.08
1991-06-28,43.16
1991-06-29,42.98
1991-06-30,47.84
1991-07-01,55.58
1991-07-02,62.96
1991-07-03,68.54
1991-07-04,66.2
1991-07-05,63.14
1991-07-06,59.54
1991-07-07,60.26
1991-07-08,60.08
1991-07-09,56.48
1991-07-10,53.06
1991-07-11,59.36
1991-07-12,63.32
1991-07-13,59.36
1991-07-14,55.76
1991-07-15,53.24
1991-07-16,48.38
1991-07-17,48.56
1991-07-18,54.86
1991-07-19,59.36
1991-07-20,58.1
1991-07-21,59.54
1991-07-22,62.6
1991-07-23,61.16
1991-07-24,58.82
1991-07-25,54.14
1991-07-26,56.66
1991-07-27,62.96
1991-07-28,66.2
1991-07-29,64.22
1991-07-30,63.5
1991-07-31,62.42
1991-08-01,55.22
1991-08-02,61.16
1991-08-03,62.42
1991-08-04,56.3
1991-08-05,54.5
1991-08-06,55.22
1991-08-07,54.14
1991-08-08,59.72
1991-08-09,55.58
1991-08-10,49.28
1991-08-11,57.2
1991-08-12,58.64
1991-08-13,58.82
1991-08-14,59.54
1991-08-15,54.68
1991-08-16,56.3
1991-08-17,57.38
1991-08-18,59.9
1991-08-19,63.32
1991-08-20,59.54
1991-08-21,61.52
1991-08-22,62.78
1991-08-23,59.54
1991-08-24,58.1
1991-08-25,53.78
1991-08-26,56.12
1991-08-27,50.72
1991-08-28,46.76
1991-08-29,53.78
1991-08-30,58.28
1991-08-31,56.3
1991-09-01,53.24
1991-09-02,54.14
1991-09-03,62.6
1991-09-04,60.44
1991-09-05,57.38
1991-09-06,58.64
1991-09-07,50.72
1991-09-08,46.4
1991-09-09,42.98
1991-09-10,43.52
1991-09-11,46.76
1991-09-12,54.68
1991-09-13,51.62
1991-09-14,44.96
1991-09-15,51.08
1991-09-16,59.54
1991-09-17,60.62
1991-09-18,60.8
1991-09-19,59.72
1991-09-20,52.34
1991-09-21,41.18
1991-09-22,47.48
1991-09-23,50.54
1991-09-24,53.96
1991-09-25,59.54
1991-09-26,56.66
1991-09-27,48.2
1991-09-28,48.02
1991-09-29,51.8
1991-09-30,52.52
1991-10-01,50.54
1991-10-02,57.56
1991-10-03,52.16
1991-10-04,49.82
1991-10-05,57.74
1991-10-06,55.58
1991-10-07,49.46
1991-10-08,49.28
1991-10-09,50.72
1991-10-10,54.32
1991-10-11,57.2
1991-10-12,54.68
1991-10-13,49.1
1991-10-14,56.66
1991-10-15,57.2
1991-10-16,47.3
1991-10-17,42.08
1991-10-18,46.4
1991-10-19,42.08
1991-10-20,43.34
1991-10-21,44.24
1991-10-22,30.38
1991-10-23,24.26
1991-10-24,25.52
1991-10-25,28.94
1991-10-26,26.42
1991-10-27,18.5
1991-10-28,23.18
1991-10-29,17.42
1991-10-30,19.04
1991-10-31,32.36
1991-11-01,33.8
1991-11-02,34.34
1991-11-03,38.84
1991-11-04,39.92
1991-11-05,40.64
1991-11-06,42.98
1991-11-07,45.14
1991-11-08,41.9
1991-11-09,35.24
1991-11-10,35.06
1991-11-11,39.92
1991-11-12,39.38
1991-11-13,27.68
1991-11-14,20.84
1991-11-15,23.0
1991-11-16,29.12
1991-11-17,25.52
1991-11-18,23.0
1991-11-19,28.76
1991-11-20,27.86
1991-11-21,19.04
1991-11-22,19.58
1991-11-23,34.16
1991-11-24,33.62
1991-11-25,34.16
1991-11-26,32.0
1991-11-27,19.58
1991-11-28,20.84
1991-11-29,13.82
1991-11-30,17.42
1991-12-01,25.52
1991-12-02,28.58
1991-12-03,29.84
1991-12-04,32.36
1991-12-05,33.98
1991-12-06,30.74
1991-12-07,20.48
1991-12-08,21.74
1991-12-09,25.7
1991-12-10,21.02
1991-12-11,24.44
1991-12-12,25.88
1991-12-13,25.34
1991-12-14,32.0
1991-12-15,32.9
1991-12-16,33.8
1991-12-17,31.46
1991-12-18,22.82
1991-12-19,14.9
1991-12-20,25.88
1991-12-21,33.08
1991-12-22,29.12
1991-12-23,28.76
1991-12-24,28.58
1991-12-25,31.64
1991-12-26,33.08
1991-12-27,32.0
1991-12-28,25.7
1991-12-29,24.26
1991-12-30,22.46
1991-12-31,30.74
1992-01-01,30.74
1992-01-02,28.22
1992-01-03,27.32
1992-01-04,25.52
1992-01-05,23.36
1992-01-06,20.84
1992-01-07,16.7
1992-01-08,24.26
1992-01-09,34.88
1992-01-10,28.04
1992-01-11,17.06
1992-01-12,18.68
1992-01-13,26.6
1992-01-14,28.04
1992-01-15,32.72
1992-01-16,28.76
1992-01-17,21.56
1992-01-18,23.36
1992-01-19,31.82
1992-01-20,28.94
1992-01-21,24.98
1992-01-22,26.6
1992-01-23,30.74
1992-01-24,34.34
1992-01-25,26.42
1992-01-26,28.76
1992-01-27,31.28
1992-01-28,28.4
1992-01-29,33.98
1992-01-30,39.02
1992-01-31,35.6
1992-02-01,24.62
1992-02-02,25.34
1992-02-03,28.22
1992-02-04,27.32
1992-02-05,29.3
1992-02-06,29.3
1992-02-07,28.22
1992-02-08,29.12
1992-02-09,30.38
1992-02-10,29.84
1992-02-11,28.76
1992-02-12,29.66
1992-02-13,27.32
1992-02-14,25.88
1992-02-15,20.48
1992-02-16,21.92
1992-02-17,22.1
1992-02-18,26.24
1992-02-19,30.92
1992-02-20,30.2
1992-02-21,31.1
1992-02-22,28.22
1992-02-23,31.46
1992-02-24,39.02
1992-02-25,38.48
1992-02-26,39.92
1992-02-27,41.72
1992-02-28,40.1
1992-02-29,36.68
1992-03-01,31.82
1992-03-02,32.0
1992-03-03,30.56
1992-03-04,31.82
1992-03-05,29.3
1992-03-06,27.86
1992-03-07,27.32
1992-03-08,27.14
1992-03-09,30.56
1992-03-10,34.16
1992-03-11,36.32
1992-03-12,39.92
1992-03-13,38.48
1992-03-14,35.6
1992-03-15,26.78
1992-03-16,27.86
1992-03-17,26.06
1992-03-18,26.6
1992-03-19,32.18
1992-03-20,34.88
1992-03-21,35.06
1992-03-22,35.42
1992-03-23,31.82
1992-03-24,34.16
1992-03-25,37.4
1992-03-26,34.52
1992-03-27,31.64
1992-03-28,35.6
1992-03-29,36.5
1992-03-30,35.24
1992-03-31,40.28
1992-04-01,42.8
1992-04-02,47.48
1992-04-03,39.38
1992-04-04,28.22
1992-04-05,24.08
1992-04-06,26.06
1992-04-07,34.34
1992-04-08,34.7
1992-04-09,33.62
1992-04-10,36.32
1992-04-11,35.42
1992-04-12,34.34
1992-04-13,32.72
1992-04-14,36.86
1992-04-15,37.04
1992-04-16,36.14
1992-04-17,32.18
1992-04-18,32.9
1992-04-19,40.64
1992-04-20,43.34
1992-04-21,33.62
1992-04-22,26.78
1992-04-23,31.82
1992-04-24,43.16
1992-04-25,48.92
1992-04-26,45.86
1992-04-27,47.12
1992-04-28,50.36
1992-04-29,45.32
1992-04-30,34.7
1992-05-01,36.14
1992-05-02,45.86
1992-05-03,52.88
1992-05-04,55.58
1992-05-05,57.2
1992-05-06,59.54
1992-05-07,55.58
1992-05-08,44.96
1992-05-09,39.38
1992-05-10,44.24
1992-05-11,41.72
1992-05-12,44.6
1992-05-13,49.64
1992-05-14,48.56
1992-05-15,48.02
1992-05-16,50.18
1992-05-17,54.5
1992-05-18,47.48
1992-05-19,42.98
1992-05-20,38.12
1992-05-21,41.0
1992-05-22,51.44
1992-05-23,58.28
1992-05-24,60.98
1992-05-25,56.66
1992-05-26,47.84
1992-05-27,46.94
1992-05-28,49.28
1992-05-29,50.0
1992-05-30,54.86
1992-05-31,60.44
1992-06-01,59.54
1992-06-02,54.68
1992-06-03,58.82
1992-06-04,55.22
1992-06-05,50.18
1992-06-06,53.78
1992-06-07,54.32
1992-06-08,57.02
1992-06-09,53.42
1992-06-10,52.16
1992-06-11,50.18
1992-06-12,33.44
1992-06-13,32.18
1992-06-14,34.88
1992-06-15,36.14
1992-06-16,42.8
1992-06-17,49.64
1992-06-18,51.62
1992-06-19,54.5
1992-06-20,59.9
1992-06-21,64.58
1992-06-22,68.9
1992-06-23,68.54
1992-06-24,56.66
1992-06-25,53.78
1992-06-26,57.74
1992-06-27,59.9
1992-06-28,48.02
1992-06-29,37.04
1992-06-30,38.48
1992-07-01,43.34
1992-07-02,49.64
1992-07-03,51.62
1992-07-04,50.18
1992-07-05,43.52
1992-07-06,45.32
1992-07-07,48.74
1992-07-08,52.52
1992-07-09,55.4
1992-07-10,56.48
1992-07-11,48.92
1992-07-12,55.04
1992-07-13,58.1
1992-07-14,59.0
1992-07-15,60.44
1992-07-16,64.76
1992-07-17,62.78
1992-07-18,62.6
1992-07-19,60.8
1992-07-20,52.88
1992-07-21,55.76
1992-07-22,44.6
1992-07-23,47.48
1992-07-24,51.8
1992-07-25,60.8
1992-07-26,66.2
1992-07-27,67.28
1992-07-28,66.56
1992-07-29,66.2
1992-07-30,69.62
1992-07-31,68.0
1992-08-01,65.66
1992-08-02,65.66
1992-08-03,63.68
1992-08-04,59.0
1992-08-05,57.92
1992-08-06,58.28
1992-08-07,55.58
1992-08-08,53.96
1992-08-09,59.36
1992-08-10,66.74
1992-08-11,71.06
1992-08-12,66.02
1992-08-13,68.9
1992-08-14,69.26
1992-08-15,61.16
1992-08-16,
1992-08-17,4.1
1992-08-18,69.62
1992-08-19,66.02
1992-08-20,59.9
1992-08-21,51.44
1992-08-22,39.74
1992-08-23,41.18
1992-08-24,43.88
1992-08-25,49.1
1992-08-26,57.92
1992-08-27,61.16
1992-08-28,59.0
1992-08-29,58.1
1992-08-30,56.12
1992-08-31,50.9
1992-09-01,
1992-09-02,51.26
1992-09-03,45.5
1992-09-04,42.8
1992-09-05,40.28
1992-09-06,35.6
1992-09-07,44.6
1992-09-08,48.92
1992-09-09,51.08
1992-09-10,56.84
1992-09-11,53.06
1992-09-12,41.72
1992-09-13,39.38
1992-09-14,47.3
1992-09-15,48.2
1992-09-16,50.54
1992-09-17,51.08
1992-09-18,54.5
1992-09-19,52.16
1992-09-20,53.96
1992-09-21,57.38
1992-09-22,60.26
1992-09-23,51.08
1992-09-24,37.22
1992-09-25,38.48
1992-09-26,50.72
1992-09-27,50.36
1992-09-28,56.84
1992-09-29,60.62
1992-09-30,57.56
1992-10-01,51.8
1992-10-02,37.04
1992-10-03,34.34
1992-10-04,36.86
1992-10-05,39.92
1992-10-06,38.48
1992-10-07,46.76
1992-10-08,44.78
1992-10-09,43.7
1992-10-10,53.06
1992-10-11,58.28
1992-10-12,54.68
1992-10-13,42.08
1992-10-14,35.42
1992-10-15,42.62
1992-10-16,41.72
1992-10-17,42.26
1992-10-18,43.88
1992-10-19,44.6
1992-10-20,42.08
1992-10-21,35.42
1992-10-22,39.74
1992-10-23,46.58
1992-10-24,46.22
1992-10-25,45.86
1992-10-26,44.6
1992-10-27,43.88
1992-10-28,32.9
1992-10-29,30.92
1992-10-30,28.94
1992-10-31,30.74
1992-11-01,36.68
1992-11-02,31.46
1992-11-03,27.86
1992-11-04,33.62
1992-11-05,34.7
1992-11-06,41.72
1992-11-07,31.82
1992-11-08,24.08
1992-11-09,19.58
1992-11-10,21.38
1992-11-11,32.18
1992-11-12,35.96
1992-11-13,41.36
1992-11-14,42.08
1992-11-15,38.3
1992-11-16,33.44
1992-11-17,30.2
1992-11-18,27.32
1992-11-19,22.46
1992-11-20,17.78
1992-11-21,26.24
1992-11-22,20.84
1992-11-23,15.98
1992-11-24,19.22
1992-11-25,25.88
1992-11-26,33.44
1992-11-27,29.3
1992-11-28,20.12
1992-11-29,23.9
1992-11-30,29.66
1992-12-01,29.84
1992-12-02,23.72
1992-12-03,10.58
1992-12-04,14.18
1992-12-05,18.5
1992-12-06,24.44
1992-12-07,22.1
1992-12-08,22.46
1992-12-09,24.26
1992-12-10,25.52
1992-12-11,18.5
1992-12-12,18.5
1992-12-13,19.22
1992-12-14,26.42
1992-12-15,14.18
1992-12-16,15.8
1992-12-17,13.64
1992-12-18,11.66
1992-12-19,18.32
1992-12-20,21.2
1992-12-21,19.58
1992-12-22,23.18
1992-12-23,28.58
1992-12-24,26.06
1992-12-25,29.12
1992-12-26,27.5
1992-12-27,22.64
1992-12-28,20.48
1992-12-29,16.7
1992-12-30,14.18
1992-12-31,21.56
1993-01-01,15.62
1993-01-02,7.7
1993-01-03,12.56
1993-01-04,14.18
1993-01-05,16.16
1993-01-06,14.9
1993-01-07,24.26
1993-01-08,17.6
1993-01-09,13.64
1993-01-10,11.84
1993-01-11,10.58
1993-01-12,15.62
1993-01-13,26.24
1993-01-14,25.34
1993-01-15,20.12
1993-01-16,21.38
1993-01-17,16.88
1993-01-18,21.92
1993-01-19,24.26
1993-01-20,26.24
1993-01-21,25.7
1993-01-22,15.62
1993-01-23,15.98
1993-01-24,28.04
1993-01-25,31.1
1993-01-26,32.0
1993-01-27,34.34
1993-01-28,25.7
1993-01-29,22.28
1993-01-30,21.38
1993-01-31,27.86
1993-02-01,27.32
1993-02-02,30.56
1993-02-03,32.72
1993-02-04,35.6
1993-02-05,32.36
1993-02-06,30.2
1993-02-07,30.74
1993-02-08,29.84
1993-02-09,27.86
1993-02-10,24.98
1993-02-11,22.82
1993-02-12,21.74
1993-02-13,19.04
1993-02-14,18.86
1993-02-15,7.16
1993-02-16,-1.3
1993-02-17,18.68
1993-02-18,30.38
1993-02-19,26.42
1993-02-20,12.92
1993-02-21,15.98
1993-02-22,20.84
1993-02-23,21.38
1993-02-24,12.2
1993-02-25,10.22
1993-02-26,10.22
1993-02-27,15.8
1993-02-28,24.98
1993-03-01,26.96
1993-03-02,32.18
1993-03-03,27.14
1993-03-04,30.92
1993-03-05,33.98
1993-03-06,41.54
1993-03-07,38.12
1993-03-08,37.76
1993-03-09,35.96
1993-03-10,32.54
1993-03-11,28.22
1993-03-12,33.08
1993-03-13,33.26
1993-03-14,31.82
1993-03-15,31.46
1993-03-16,31.82
1993-03-17,32.72
1993-03-18,33.44
1993-03-19,35.06
1993-03-20,32.0
1993-03-21,37.58
1993-03-22,40.1
1993-03-23,33.26
1993-03-24,27.86
1993-03-25,27.5
1993-03-26,29.84
1993-03-27,31.82
1993-03-28,33.26
1993-03-29,30.74
1993-03-30,30.74
1993-03-31,37.4
1993-04-01,27.14
1993-04-02,27.14
1993-04-03,32.72
1993-04-04,27.32
1993-04-05,25.16
1993-04-06,28.22
1993-04-07,35.06
1993-04-08,31.82
1993-04-09,28.04
1993-04-10,23.9
1993-04-11,21.56
1993-04-12,27.68
1993-04-13,29.3
1993-04-14,33.62
1993-04-15,33.08
1993-04-16,33.08
1993-04-17,27.86
1993-04-18,26.06
1993-04-19,31.82
1993-04-20,38.48
1993-04-21,35.96
1993-04-22,28.94
1993-04-23,28.76
1993-04-24,32.18
1993-04-25,34.34
1993-04-26,29.3
1993-04-27,33.62
1993-04-28,40.82
1993-04-29,38.84
1993-04-30,36.14
1993-05-01,39.38
1993-05-02,42.98
1993-05-03,31.82
1993-05-04,31.1
1993-05-05,39.38
1993-05-06,32.9
1993-05-07,28.22
1993-05-08,33.44
1993-05-09,46.04
1993-05-10,52.52
1993-05-11,52.7
1993-05-12,45.32
1993-05-13,40.82
1993-05-14,44.6
1993-05-15,49.28
1993-05-16,51.08
1993-05-17,52.88
1993-05-18,51.08
1993-05-19,46.94
1993-05-20,43.52
1993-05-21,39.2
1993-05-22,41.18
1993-05-23,51.08
1993-05-24,48.74
1993-05-25,37.58
1993-05-26,38.48
1993-05-27,36.68
1993-05-28,37.4
1993-05-29,42.26
1993-05-30,43.7
1993-05-31,38.48
1993-06-01,35.24
1993-06-02,34.52
1993-06-03,37.4
1993-06-04,36.32
1993-06-05,34.52
1993-06-06,39.74
1993-06-07,35.96
1993-06-08,41.18
1993-06-09,46.94
1993-06-10,44.42
1993-06-11,33.26
1993-06-12,38.12
1993-06-13,50.36
1993-06-14,51.8
1993-06-15,46.4
1993-06-16,41.72
1993-06-17,49.82
1993-06-18,57.92
1993-06-19,62.78
1993-06-20,61.52
1993-06-21,46.4
1993-06-22,36.32
1993-06-23,40.82
1993-06-24,49.64
1993-06-25,59.54
1993-06-26,60.44
1993-06-27,50.18
1993-06-28,41.9
1993-06-29,45.32
1993-06-30,49.46
1993-07-01,52.88
1993-07-02,43.52
1993-07-03,44.42
1993-07-04,45.32
1993-07-05,50.9
1993-07-06,53.24
1993-07-07,50.9
1993-07-08,53.06
1993-07-09,55.58
1993-07-10,53.6
1993-07-11,52.88
1993-07-12,45.5
1993-07-13,46.04
1993-07-14,39.02
1993-07-15,40.46
1993-07-16,41.36
1993-07-17,44.96
1993-07-18,52.52
1993-07-19,47.12
1993-07-20,43.7
1993-07-21,44.06
1993-07-22,45.5
1993-07-23,46.94
1993-07-24,46.4
1993-07-25,
1993-07-26,47.12
1993-07-27,58.1
1993-07-28,56.3
1993-07-29,50.18
1993-07-30,52.16
1993-07-31,55.76
1993-08-01,60.62
1993-08-02,61.88
1993-08-03,
1993-08-04,70.52
1993-08-05,64.4
1993-08-06,59.72
1993-08-07,51.98
1993-08-08,55.22
1993-08-09,56.12
1993-08-10,55.4
1993-08-11,49.46
1993-08-12,
1993-08-13,53.42
1993-08-14,49.28
1993-08-15,38.12
1993-08-16,40.82
1993-08-17,46.58
1993-08-18,51.62
1993-08-19,50.9
1993-08-20,47.3
1993-08-21,50.18
1993-08-22,54.86
1993-08-23,50.72
1993-08-24,37.76
1993-08-25,37.94
1993-08-26,45.68
1993-08-27,55.04
1993-08-28,51.26
1993-08-29,44.42
1993-08-30,48.74
1993-08-31,57.02
1993-09-01,57.56
1993-09-02,58.64
1993-09-03,60.08
1993-09-04,59.18
1993-09-05,56.84
1993-09-06,55.58
1993-09-07,57.74
1993-09-08,60.62
1993-09-09,63.86
1993-09-10,64.22
1993-09-11,55.22
1993-09-12,38.84
1993-09-13,40.1
1993-09-14,47.12
1993-09-15,45.14
1993-09-16,39.2
1993-09-17,40.46
1993-09-18,41.36
1993-09-19,41.9
1993-09-20,35.24
1993-09-21,34.88
1993-09-22,37.22
1993-09-23,
1993-09-24,47.84
1993-09-25,49.28
1993-09-26,52.52
1993-09-27,57.92
1993-09-28,57.02
1993-09-29,57.38
1993-09-30,57.38
1993-10-01,
1993-10-02,52.88
1993-10-03,57.38
1993-10-04,54.14
1993-10-05,42.62
1993-10-06,40.46
1993-10-07,33.26
1993-10-08,31.82
1993-10-09,39.02
1993-10-10,39.92
1993-10-11,40.1
1993-10-12,
1993-10-13,39.02
1993-10-14,36.14
1993-10-15,33.98
1993-10-16,
1993-10-17,
1993-10-18,34.88
1993-10-19,
1993-10-20,41.9
1993-10-21,
1993-10-22,42.26
1993-10-23,43.7
1993-10-24,
1993-10-25,
1993-10-26,37.4
1993-10-27,46.04
1993-10-28,
1993-10-29,36.32
1993-10-30,43.7
1993-10-31,35.96
1993-11-01,28.22
1993-11-02,40.82
1993-11-03,36.14
1993-11-04,
1993-11-05,27.32
1993-11-06,33.44
1993-11-07,32.36
1993-11-08,32.54
1993-11-09,35.96
1993-11-10,32.72
1993-11-11,29.3
1993-11-12,24.08
1993-11-13,22.82
1993-11-14,21.56
1993-11-15,29.66
1993-11-16,29.3
1993-11-17,26.42
1993-11-18,
1993-11-19,
1993-11-20,33.08
1993-11-21,30.2
1993-11-22,17.24
1993-11-23,
1993-11-24,8.78
1993-11-25,21.02
1993-11-26,34.16
1993-11-27,38.3
1993-11-28,32.54
1993-11-29,29.66
1993-11-30,22.64
1993-12-01,27.5
1993-12-02,24.98
1993-12-03,
1993-12-04,20.66
1993-12-05,22.1
1993-12-06,21.92
1993-12-07,26.96
1993-12-08,26.96
1993-12-09,27.68
1993-12-10,32.72
1993-12-11,
1993-12-12,17.6
1993-12-13,24.62
1993-12-14,
1993-12-15,
1993-12-16,16.34
1993-12-17,
1993-12-18,16.16
1993-12-19,18.5
1993-12-20,23.9
1993-12-21,23.54
1993-12-22,26.06
1993-12-23,24.44
1993-12-24,33.44
1993-12-25,
1993-12-26,30.2
1993-12-27,24.62
1993-12-28,27.86
1993-12-29,33.98
1993-12-30,29.66
1993-12-31,27.32
1994-01-01,27.14
1994-01-02,
1994-01-03,34.88
1994-01-04,
1994-01-05,8.78
1994-01-06,19.94
1994-01-07,27.14
1994-01-08,12.92
1994-01-09,12.56
1994-01-10,16.52
1994-01-11,16.7
1994-01-12,29.66
1994-01-13,33.98
1994-01-14,38.84
1994-01-15,32.72
1994-01-16,
1994-01-17,
1994-01-18,40.82
1994-01-19,39.02
1994-01-20,37.76
1994-01-21,36.68
1994-01-22,36.14
1994-01-23,28.76
1994-01-24,22.82
1994-01-25,
1994-01-26,20.66
1994-01-27,17.96
1994-01-28,17.24
1994-01-29,25.52
1994-01-30,19.22
1994-01-31,18.14
1994-02-01,20.84
1994-02-02,19.94
1994-02-03,22.1
1994-02-04,21.38
1994-02-05,
1994-02-06,24.26
1994-02-07,21.38
1994-02-08,10.94
1994-02-09,22.46
1994-02-10,19.58
1994-02-11,14.36
1994-02-12,19.94
1994-02-13,
1994-02-14,27.5
1994-02-15,26.6
1994-02-16,32.54
1994-02-17,24.44
1994-02-18,17.78
1994-02-19,17.24
1994-02-20,19.22
1994-02-21,17.6
1994-02-22,18.14
1994-02-23,23.54
1994-02-24,27.86
1994-02-25,28.76
1994-02-26,29.12
1994-02-27,28.76
1994-02-28,
1994-03-01,39.74
1994-03-02,39.56
1994-03-03,
1994-03-04,33.98
1994-03-05,25.7
1994-03-06,
1994-03-07,33.08
1994-03-08,34.34
1994-03-09,39.02
1994-03-10,30.92
1994-03-11,26.42
1994-03-12,37.04
1994-03-13,46.22
1994-03-14,46.58
1994-03-15,39.2
1994-03-16,26.6
1994-03-17,28.04
1994-03-18,25.52
1994-03-19,18.32
1994-03-20,29.12
1994-03-21,24.62
1994-03-22,15.26
1994-03-23,20.3
1994-03-24,27.14
1994-03-25,28.04
1994-03-26,35.24
1994-03-27,39.2
1994-03-28,42.62
1994-03-29,37.94
1994-03-30,32.9
1994-03-31,28.04
1994-04-01,34.88
1994-04-02,39.02
1994-04-03,31.28
1994-04-04,28.22
1994-04-05,30.02
1994-04-06,26.78
1994-04-07,25.16
1994-04-08,27.32
1994-04-09,27.32
1994-04-10,30.56
1994-04-11,38.84
1994-04-12,37.22
1994-04-13,34.88
1994-04-14,
1994-04-15,48.56
1994-04-16,47.66
1994-04-17,50.18
1994-04-18,49.28
1994-04-19,48.02
1994-04-20,47.12
1994-04-21,
1994-04-22,33.26
1994-04-23,32.0
1994-04-24,29.48
1994-04-25,27.86
1994-04-26,29.66
1994-04-27,28.76
1994-04-28,35.42
1994-04-29,37.94
1994-04-30,33.26
1994-05-01,36.32
1994-05-02,37.58
1994-05-03,38.48
1994-05-04,39.2
1994-05-05,38.84
1994-05-06,45.5
1994-05-07,48.56
1994-05-08,50.72
1994-05-09,52.16
1994-05-10,55.76
1994-05-11,55.4
1994-05-12,45.32
1994-05-13,42.98
1994-05-14,46.76
1994-05-15,32.18
1994-05-16,29.84
1994-05-17,31.46
1994-05-18,32.0
1994-05-19,33.44
1994-05-20,36.14
1994-05-21,35.24
1994-05-22,40.46
1994-05-23,50.9
1994-05-24,55.4
1994-05-25,54.32
1994-05-26,51.26
1994-05-27,44.06
1994-05-28,42.8
1994-05-29,45.14
1994-05-30,49.82
1994-05-31,46.22
1994-06-01,42.62
1994-06-02,50.9
1994-06-03,47.48
1994-06-04,45.68
1994-06-05,43.16
1994-06-06,31.46
1994-06-07,
1994-06-08,
1994-06-09,
1994-06-10,
1994-06-11,57.74
1994-06-12,
1994-06-13,
1994-06-14,
1994-06-15,33.8
1994-06-16,
1994-06-17,
1994-06-18,46.58
1994-06-19,
1994-06-20,
1994-06-21,58.82
1994-06-22,58.82
1994-06-23,
1994-06-24,55.22
1994-06-25,
1994-06-26,
1994-06-27,
1994-06-28,
1994-06-29,62.24
1994-06-30,60.26
1994-07-01,56.3
1994-07-02,53.42
1994-07-03,51.8
1994-07-04,53.42
1994-07-05,42.08
1994-07-06,53.78
1994-07-07,61.88
1994-07-08,67.1
1994-07-09,64.4
1994-07-10,60.08
1994-07-11,62.96
1994-07-12,60.08
1994-07-13,60.44
1994-07-14,60.98
1994-07-15,62.42
1994-07-16,65.66
1994-07-17,64.22
1994-07-18,64.4
1994-07-19,65.66
1994-07-20,68.9
1994-07-21,70.52
1994-07-22,62.96
1994-07-23,59.9
1994-07-24,63.5
1994-07-25,60.26
1994-07-26,63.14
1994-07-27,67.28
1994-07-28,68.0
1994-07-29,66.92
1994-07-30,65.48
1994-07-31,63.32
1994-08-01,63.32
1994-08-02,63.5
1994-08-03,62.78
1994-08-04,63.32
1994-08-05,59.54
1994-08-06,60.44
1994-08-07,59.18
1994-08-08,51.08
1994-08-09,56.48
1994-08-10,59.72
1994-08-11,59.36
1994-08-12,60.44
1994-08-13,63.5
1994-08-14,64.04
1994-08-15,60.62
1994-08-16,58.46
1994-08-17,60.44
1994-08-18,60.26
1994-08-19,57.74
1994-08-20,57.38
1994-08-21,53.6
1994-08-22,51.08
1994-08-23,57.92
1994-08-24,56.84
1994-08-25,57.56
1994-08-26,55.94
1994-08-27,58.64
1994-08-28,53.78
1994-08-29,52.16
1994-08-30,55.4
1994-08-31,57.92
1994-09-01,53.78
1994-09-02,48.38
1994-09-03,46.04
1994-09-04,48.38
1994-09-05,59.18
1994-09-06,59.36
1994-09-07,56.66
1994-09-08,52.88
1994-09-09,40.64
1994-09-10,38.48
1994-09-11,34.16